Location: Unspecified
(41.1850°N, 73.2650°W)
Time: 02:58:56
(UTC+00:00)

NOSS 3-1 (C) - Pass Details

Date: 14 December 2025
Orbit: 618 x 1583 km, 63.4° (Epoch: 10 January)

Event Time Altitude Azimuth Distance (km) Brightness Sun altitude
Rises 23:38:29 0° 193° (SSW) 2,883 6.3 -24.3°
Reaches altitude 10° 23:40:44 10° 186° (S) 2,010 5.3 -24.7°
Enters shadow 23:42:48 25° 169° (S) 1,312 4.2 -25.1°
